Beverly, MA (01915)

6:49 AM EDT on May 05, 2015 (GMT -0400)
Beverly Cove | | Change Station
CLOSE
Current Station
Personal Weather Station
Location: Beverly, MA
Elevation: 51 ft
Nearby Weather Stations

Elev 51 ft 42.56 °N, 70.85 °W | Updated 1 second ago

Mostly Cloudy
Mostly Cloudy
67.2 °F
Feels Like 67.2 °F
N
0.0
Wind Variable Wind from North
Gusts 5.0 mph

Today
High -- | Low -- °F
--% Chance of Precip.
Yesterday
High -- | Low -- °F
Precip. -- in
5:33 AM 7:47 PM
Full, 98% visible
Pressure 30.08 in
Visibility 10.0 miles
Clouds Mostly Cloudy 11000 ft
Dew Point 50 °F
Humidity 55%
Rainfall 0.00 in
Snow Depth Not available.
UV 0 out of 12
Pollen 11.80 out of 12
Air Quality Not available.
Flu Activity Widespread
METAR KBVY 050953Z AUTO 26009KT 10SM BKN110 19/07 A3009 RMK AO2 SLP184 T01940067

More Conditions Fewer Conditions

Pressure 30.08 in
Visibility 10.0 miles
Clouds Mostly Cloudy 11000 ft
Dew Point 50 °F
Humidity 55%
Rainfall 0.00 in
Snow Depth Not available.
UV 0 out of 12
Pollen 11.80 out of 12
Air Quality Not available.
Flu Activity Widespread
METAR KBVY 050953Z AUTO 26009KT 10SM BKN110 19/07 A3009 RMK AO2 SLP184 T01940067

More Conditions Fewer Conditions

Nepal has a long way to go to dig out and rebuild from a devastating earthquake. We have teamed up with several charities and organizations to make contributing to the relief effort as easy as possible.
How you can help: Portlight Strategies | Red Cross

10-Day Weather Forecast

Almanac

Astronomy

May. 05, 2015 Rise Set
Actual Time
Civil Twilight
Nautical Twilight
Astronomical Twilight
Moon
Length of Visible Light
Length of Day
Tomorrow will be .
, % of the Moon is Illuminated

Today's Extremes

State Highs State Lows

Community

WunderPhotos

Upload Photos

1,818,828 photos uploaded!

WunderBlogs® & News

Nearby

Air Quality

  Air Quality AQ Index Pollutant
Not available.

Snow Depth

Station Depth Elevation

Earthquake Activity

City Distance Mag. Time & Date
Minimum magnitude displayed is 2.5.

Coastal Water Temperatures

Place Temperature

Stations

Nearby Weather Stations

Station Location Temp. Windchill Dew Point Humidity Wind Precip. Elev Updated Type